2022-02-15 00:03:05 r, 15.52m,0000000052Hz,0000008888c,0000000.019s,-009.7C,00002191
2022-02-15 00:13:05 r, 15.67m,0000000045Hz,0000010227c,0000000.022s,-009.4C,00002191
2022-02-15 00:23:07 r, 15.59m,0000000048Hz,0000009477c,0000000.021s,-009.1C,00002191
2022-02-15 00:33:05 r, 15.71m,0000000044Hz,0000010505c,0000000.023s,-009.1C,00002191
2022-02-15 00:43:05 r, 15.80m,0000000039Hz,0000011427c,0000000.025s,-008.8C,00002191
2022-02-15 00:53:07 r, 15.93m,0000000035Hz,0000012943c,0000000.028s,-008.8C,00002191
2022-02-15 01:03:05 r, 16.12m,0000000030Hz,0000015446c,0000000.034s,-008.8C,00002191
2022-02-15 01:13:05 r, 16.34m,0000000024Hz,0000018825c,0000000.041s,-008.8C,00002191
2022-02-15 01:23:05 r, 16.52m,0000000021Hz,0000022330c,0000000.048s,-008.8C,00002191
2022-02-15 01:33:05 r, 16.64m,0000000018Hz,0000024836c,0000000.054s,-008.4C,00002191
2022-02-15 01:43:05 r, 16.71m,0000000017Hz,0000026455c,0000000.057s,-008.8C,00002191
2022-02-15 01:53:05 r, 16.76m,0000000017Hz,0000027723c,0000000.060s,-008.8C,00002191
2022-02-15 02:03:05 r, 16.77m,0000000016Hz,0000028107c,0000000.061s,-008.8C,00002191
2022-02-15 02:13:05 r, 16.79m,0000000016Hz,0000028646c,0000000.062s,-008.8C,00002191
2022-02-15 02:23:06 r, 16.72m,0000000017Hz,0000026844c,0000000.058s,-008.8C,00002191
2022-02-15 02:33:05 r, 16.69m,0000000018Hz,0000025948c,0000000.056s,-008.4C,00002191
2022-02-15 02:43:05 r, 16.64m,0000000019Hz,0000024754c,0000000.054s,-008.4C,00002191
2022-02-15 02:53:07 r, 16.77m,0000000017Hz,0000027781c,0000000.060s,-008.1C,00002191
2022-02-15 03:03:05 r, 17.06m,0000000013Hz,0000036283c,0000000.079s,-008.1C,00002191
2022-02-15 03:13:05 r, 17.30m,0000000010Hz,0000045194c,0000000.098s,-008.1C,00002191
2022-02-15 03:23:07 r, 17.27m,0000000010Hz,0000044162c,0000000.096s,-008.1C,00002191
2022-02-15 03:33:05 r, 17.29m,0000000010Hz,0000045201c,0000000.098s,-008.4C,00002191
2022-02-15 03:43:05 r, 16.90m,0000000014Hz,0000031699c,0000000.069s,-008.4C,00002191
2022-02-15 03:53:05 r, 16.78m,0000000016Hz,0000028006c,0000000.061s,-008.1C,00002191
2022-02-15 04:03:07 r, 16.80m,0000000016Hz,0000028565c,0000000.062s,-008.1C,00002191
2022-02-15 04:13:05 r, 16.80m,0000000016Hz,0000028546c,0000000.062s,-007.8C,00002191
2022-02-15 04:23:06 r, 16.83m,0000000016Hz,0000029254c,0000000.063s,-007.5C,00002191
2022-02-15 04:33:05 r, 16.77m,0000000016Hz,0000027873c,0000000.060s,-007.1C,00002191
2022-02-15 04:43:05 r, 16.67m,0000000018Hz,0000025479c,0000000.055s,-006.8C,00002191
2022-02-15 04:53:07 r, 16.64m,0000000019Hz,0000024806c,0000000.054s,-006.8C,00002191
2022-02-15 05:03:05 r, 16.81m,0000000016Hz,0000029122c,0000000.063s,-006.5C,00002191
2022-02-15 05:13:05 r, 17.00m,0000000013Hz,0000034671c,0000000.075s,-006.5C,00002191
2022-02-15 05:23:07 r, 16.83m,0000000016Hz,0000029589c,0000000.064s,-006.2C,00002191
2022-02-15 05:33:05 r, 16.94m,0000000014Hz,0000032606c,0000000.071s,-005.9C,00002191
2022-02-15 05:43:05 r, 17.28m,0000000011Hz,0000044606c,0000000.097s,-005.5C,00002191
2022-02-15 05:53:05 r, 17.33m,0000000010Hz,0000046736c,0000000.101s,-005.5C,00002191
2022-02-15 06:03:06 r, 17.12m,0000000012Hz,0000038811c,0000000.084s,-005.5C,00002191
2022-02-15 06:13:05 r, 16.99m,0000000013Hz,0000034353c,0000000.075s,-005.2C,00002191
2022-02-15 06:23:06 r, 16.85m,0000000016Hz,0000029972c,0000000.065s,-005.2C,00002191
2022-02-15 06:33:05 r, 16.71m,0000000017Hz,0000026458c,0000000.057s,-004.9C,00002191
2022-02-15 06:43:05 r, 16.48m,0000000021Hz,0000021458c,0000000.047s,-004.6C,00002191
2022-02-15 06:53:05 r, 15.42m,0000000056Hz,0000008106c,0000000.018s,-004.2C,00002191
2022-02-15 07:03:07 r, 13.69m,0000000285Hz,0000000000c,0000000.000s,-003.9C,00002191
2022-02-15 07:13:04 r, 11.68m,0000001793Hz,0000000000c,0000000.000s,-003.9C,00002191
2022-02-15 07:23:05 r, 09.76m,0000010596Hz,0000000000c,0000000.000s,-003.6C,00002191
2022-02-15 07:33:05 r, 08.27m,0000041594Hz,0000000000c,0000000.000s,-003.3C,00002191
2022-02-15 07:43:05 r, 07.28m,0000103508Hz,0000000000c,0000000.000s,-003.0C,00002191
2022-02-15 07:53:07 r, 06.52m,0000208720Hz,0000000000c,0000000.000s,-002.3C,00002191
2022-02-15 08:03:05 r, 05.92m,0000361192Hz,0000000000c,0000000.000s,-002.3C,00002191
2022-02-15 08:13:05 r, 00.00m,0000572740Hz,0000000000c,0000000.000s,-001.7C,00002191
2022-02-15 08:23:05 r, 00.00m,0000599312Hz,0000000000c,0000000.000s,-001.3C,00002191
2022-02-15 08:33:06 r, 00.00m,0000599283Hz,0000000000c,0000000.000s,-001.0C,00002191
2022-02-15 08:43:04 r, 00.00m,0000599273Hz,0000000000c,0000000.000s,-000.4C,00002191
2022-02-15 08:53:06 r, 00.00m,0000599364Hz,0000000000c,0000000.000s,-000.4C,00002191
2022-02-15 09:03:05 r, 00.00m,0000599356Hz,0000000000c,0000000.000s, 000.3C,00002191
2022-02-15 09:13:04 r, 00.00m,0000599178Hz,0000000000c,0000000.000s, 000.6C,00002191
2022-02-15 09:23:05 r, 00.00m,0000599238Hz,0000000000c,0000000.000s, 000.9C,00002191
2022-02-15 09:33:07 r, 00.00m,0000599169Hz,0000000000c,0000000.000s, 001.2C,00002191
2022-02-15 09:43:04 r, 00.00m,0000599097Hz,0000000000c,0000000.000s, 001.6C,00002191
2022-02-15 09:53:04 r, 00.00m,0000599117Hz,0000000000c,0000000.000s, 001.6C,00002191
2022-02-15 10:03:05 r, 00.00m,0000599058Hz,0000000000c,0000000.000s, 002.2C,00002191
2022-02-15 10:13:05 r, 00.00m,0000599008Hz,0000000000c,0000000.000s, 002.9C,00002191
2022-02-15 10:23:07 r, 00.00m,0000599019Hz,0000000000c,0000000.000s, 002.9C,00002191
2022-02-15 10:33:05 r, 00.00m,0000598990Hz,0000000000c,0000000.000s, 003.2C,00002191
2022-02-15 10:43:04 r, 00.00m,0000599005Hz,0000000000c,0000000.000s, 003.8C,00002191
2022-02-15 10:53:05 r, 00.00m,0000599011Hz,0000000000c,0000000.000s, 004.1C,00002191
2022-02-15 11:03:05 r, 00.00m,0000598603Hz,0000000000c,0000000.000s, 004.8C,00002191
2022-02-15 11:13:04 r, 00.00m,0000598727Hz,0000000000c,0000000.000s, 005.4C,00002191
2022-02-15 11:23:04 r, 00.00m,0000598713Hz,0000000000c,0000000.000s, 005.8C,00002191
2022-02-15 11:33:07 r, 00.00m,0000598587Hz,0000000000c,0000000.000s, 006.1C,00002191
2022-02-15 11:43:04 r, 00.00m,0000598669Hz,0000000000c,0000000.000s, 006.1C,00002191
2022-02-15 11:53:04 r, 00.00m,0000598568Hz,0000000000c,0000000.000s, 006.1C,00002191
2022-02-15 12:03:05 r, 00.00m,0000598466Hz,0000000000c,0000000.000s, 006.4C,00002191
2022-02-15 12:13:04 r, 00.00m,0000598560Hz,0000000000c,0000000.000s, 006.4C,00002191
2022-02-15 12:23:07 r, 00.00m,0000598414Hz,0000000000c,0000000.000s, 007.0C,00002191
2022-02-15 12:33:05 r, 00.00m,0000598350Hz,0000000000c,0000000.000s, 007.7C,00002191
2022-02-15 12:43:04 r, 00.00m,0000598376Hz,0000000000c,0000000.000s, 008.0C,00002191
2022-02-15 12:53:05 r, 00.00m,0000598314Hz,0000000000c,0000000.000s, 008.3C,00002191
2022-02-15 13:03:06 r, 00.00m,0000598386Hz,0000000000c,0000000.000s, 008.3C,00002191
2022-02-15 13:13:04 r, 00.00m,0000598321Hz,0000000000c,0000000.000s, 008.7C,00002191
2022-02-15 13:23:04 r, 00.00m,0000598347Hz,0000000000c,0000000.000s, 008.3C,00002191
2022-02-15 13:33:07 r, 00.00m,0000598447Hz,0000000000c,0000000.000s, 008.3C,00002191
2022-02-15 13:43:04 r, 00.00m,0000598315Hz,0000000000c,0000000.000s, 008.3C,00002191
2022-02-15 13:53:04 r, 00.00m,0000598319Hz,0000000000c,0000000.000s, 008.7C,00002191
2022-02-15 14:03:07 r, 00.00m,0000598293Hz,0000000000c,0000000.000s, 009.0C,00002191
2022-02-15 14:13:04 r, 00.00m,0000598368Hz,0000000000c,0000000.000s, 009.0C,00002191
2022-02-15 14:23:04 r, 00.00m,0000598278Hz,0000000000c,0000000.000s, 009.3C,00002191
2022-02-15 14:33:05 r, 00.00m,0000598303Hz,0000000000c,0000000.000s, 009.6C,00002191
2022-02-15 14:43:04 r, 00.00m,0000598286Hz,0000000000c,0000000.000s, 009.3C,00002191
2022-02-15 14:53:04 r, 00.00m,0000598291Hz,0000000000c,0000000.000s, 008.7C,00002191
2022-02-15 15:03:05 r, 00.00m,0000598398Hz,0000000000c,0000000.000s, 008.3C,00002191
2022-02-15 15:13:04 r, 00.00m,0000598395Hz,0000000000c,0000000.000s, 008.0C,00002191
2022-02-15 15:23:04 r, 00.00m,0000598471Hz,0000000000c,0000000.000s, 008.0C,00002191
2022-02-15 15:33:06 r, 00.00m,0000598518Hz,0000000000c,0000000.000s, 007.7C,00002191
2022-02-15 15:43:04 r, 00.00m,0000598551Hz,0000000000c,0000000.000s, 007.7C,00002191
2022-02-15 15:53:04 r, 00.00m,0000598627Hz,0000000000c,0000000.000s, 007.4C,00002191
2022-02-15 16:03:07 r, 00.00m,0000598633Hz,0000000000c,0000000.000s, 007.4C,00002191
2022-02-15 16:13:04 r, 00.00m,0000598602Hz,0000000000c,0000000.000s, 007.4C,00002191
2022-02-15 16:23:04 r, 00.00m,0000598682Hz,0000000000c,0000000.000s, 007.7C,00002191
2022-02-15 16:33:07 r, 00.00m,0000598604Hz,0000000000c,0000000.000s, 007.7C,00002191
2022-02-15 16:43:04 r, 00.00m,0000598653Hz,0000000000c,0000000.000s, 007.7C,00002191
2022-02-15 16:53:04 r, 00.00m,0000598559Hz,0000000000c,0000000.000s, 007.7C,00002191
2022-02-15 17:03:05 r, 00.00m,0000598673Hz,0000000000c,0000000.000s, 007.4C,00002191
2022-02-15 17:13:04 r, 00.00m,0000596410Hz,0000000000c,0000000.000s, 007.0C,00002191
2022-02-15 17:23:04 r, 05.83m,0000395208Hz,0000000000c,0000000.000s, 006.4C,00002191
2022-02-15 17:33:05 r, 06.41m,0000229815Hz,0000000000c,0000000.000s, 006.1C,00002191
2022-02-15 17:43:04 r, 07.19m,0000113104Hz,0000000000c,0000000.000s, 005.4C,00002191
2022-02-15 17:53:04 r, 08.23m,0000043132Hz,0000000000c,0000000.000s, 005.4C,00002191
2022-02-15 18:03:06 r, 09.83m,0000009955Hz,0000000000c,0000000.000s, 005.1C,00002191
2022-02-15 18:13:04 r, 11.83m,0000001567Hz,0000000000c,0000000.000s, 004.8C,00002191
2022-02-15 18:23:04 r, 13.91m,0000000230Hz,0000000000c,0000000.000s, 005.1C,00002191
2022-02-15 18:33:04 r, 15.58m,0000000050Hz,0000009371c,0000000.020s, 005.1C,00002191
2022-02-15 18:43:04 r, 16.41m,0000000022Hz,0000020223c,0000000.044s, 005.1C,00002191
2022-02-15 18:53:04 r, 16.60m,0000000019Hz,0000024061c,0000000.052s, 004.8C,00002191
2022-02-15 19:03:04 r, 16.63m,0000000018Hz,0000024513c,0000000.053s, 004.8C,00002191
2022-02-15 19:13:04 r, 16.61m,0000000019Hz,0000024102c,0000000.052s, 004.8C,00002191
2022-02-15 19:23:04 r, 16.56m,0000000020Hz,0000023118c,0000000.050s, 004.8C,00002191
2022-02-15 19:33:05 r, 16.52m,0000000020Hz,0000022161c,0000000.048s, 004.8C,00002191
2022-02-15 19:43:04 r, 16.49m,0000000022Hz,0000021728c,0000000.047s, 004.8C,00002191
2022-02-15 19:53:04 r, 16.51m,0000000021Hz,0000022054c,0000000.048s, 004.8C,00002191
2022-02-15 20:03:06 r, 16.59m,0000000019Hz,0000023781c,0000000.052s, 004.8C,00002191
2022-02-15 20:13:05 r, 16.60m,0000000019Hz,0000023819c,0000000.052s, 004.5C,00002191
2022-02-15 20:23:04 r, 16.65m,0000000019Hz,0000025002c,0000000.054s, 004.1C,00002191
2022-02-15 20:33:07 r, 16.60m,0000000019Hz,0000023819c,0000000.052s, 003.8C,00002191
2022-02-15 20:43:05 r, 16.44m,0000000022Hz,0000020695c,0000000.045s, 003.5C,00002191
2022-02-15 20:53:04 r, 16.47m,0000000022Hz,0000021194c,0000000.046s, 003.2C,00002191
2022-02-15 21:03:07 r, 16.28m,0000000026Hz,0000017844c,0000000.039s, 002.9C,00002191
2022-02-15 21:13:05 r, 16.26m,0000000026Hz,0000017614c,0000000.038s, 002.9C,00002191
2022-02-15 21:23:04 r, 16.22m,0000000027Hz,0000016978c,0000000.037s, 002.9C,00002191
2022-02-15 21:33:05 r, 16.22m,0000000027Hz,0000016898c,0000000.037s, 002.9C,00002191
2022-02-15 21:43:06 r, 16.41m,0000000023Hz,0000020191c,0000000.044s, 002.9C,00002191
2022-02-15 21:53:04 r, 16.50m,0000000021Hz,0000021854c,0000000.047s, 002.5C,00002191
2022-02-15 22:03:06 r, 16.42m,0000000022Hz,0000020388c,0000000.044s, 001.9C,00002191
2022-02-15 22:13:05 r, 16.42m,0000000023Hz,0000020234c,0000000.044s, 000.9C,00002191
2022-02-15 22:23:04 r, 16.35m,0000000025Hz,0000018973c,0000000.041s, 000.1C,00002191
2022-02-15 22:33:05 r, 16.22m,0000000027Hz,0000016933c,0000000.037s,-001.0C,00002191
2022-02-15 22:43:07 r, 16.32m,0000000025Hz,0000018624c,0000000.040s,-001.7C,00002191
2022-02-15 22:53:04 r, 16.07m,0000000031Hz,0000014642c,0000000.032s,-002.3C,00002191
2022-02-15 23:03:07 r, 16.11m,0000000030Hz,0000015292c,0000000.033s,-002.6C,00002191
2022-02-15 23:13:05 r, 16.07m,0000000031Hz,0000014707c,0000000.032s,-003.0C,00002191
2022-02-15 23:23:04 r, 16.00m,0000000034Hz,0000013777c,0000000.030s,-003.0C,00002191
2022-02-15 23:33:07 r, 15.93m,0000000036Hz,0000012935c,0000000.028s,-003.3C,00002191
2022-02-15 23:43:05 r, 15.88m,0000000038Hz,0000012327c,0000000.027s,-003.3C,00002191
2022-02-15 23:53:04 r, 15.97m,0000000034Hz,0000013490c,0000000.029s,-003.3C,00002191
